Alamosa, CO

11:22 AM MST on February 26, 2017 (GMT -0700)
San Luis Valley Regional / Bergman Field

Weather History for KALS - August, 2013

Change the Weather History Date:

Wednesday, August 7, 2013

  Actual Average Record
Temperature  
Mean Temperature 62 °F 64 °F  
Max Temperature 74 °F 81 °F 90 °F (1977)
Min Temperature 49 °F 47 °F 37 °F (1950)
Degree Days  
Heating Degree Days 3 2  
Month to date heating degree days 6 11  
Since 1 June heating degree days 136 224  
Since 1 July heating degree days 34 56  
Cooling Degree Days 0 1  
Month to date cooling degree days 8 7  
Year to date cooling degree days 73 45  
Since 1 June cooling degree days 73 45  
Growing Degree Days 12 (Base 50)    
Moisture  
Dew Point 52 °F    
Average Humidity 74    
Maximum Humidity 100    
Minimum Humidity 47    
Precipitation  
Precipitation 0.10 in 0.04 in 0.92 in (1981)
Month to date precipitation 1.45 0.28  
Year to date precipitation 3.86 3.96  
Snow  
Snow 0.00 in 0.00 in 0.00 in (2002)
Month to date snowfall 0.0 0.0  
Since 1 June snowfall 0.0 0.0  
Since 1 July snowfall 0.0 0.0  
Snow Depth 0.00 in    
Sea Level Pressure  
Sea Level Pressure 30.11 in    
Wind  
Wind Speed 4 mph (NW)    
Max Wind Speed 28 mph    
Max Gust Speed 35 mph    
Visibility 8 miles    
Events Fog , Rain , Thunderstorm    
T = Trace of Precipitation, MM = Missing Value Source: NWS Daily Summary

Daily Weather History Graph

Daily Weather History Graph

Search for Another Location

Airport or City:

Trip Planner

Search our weather history database for the weather conditions in past years. The results will help you decide how hot, cold, wet, or windy it might be!

Date:

Astronomy

Aug. 07, 2013 Rise Set
Actual Time 6:13 AM MDT 8:04 PM MDT
Civil Twilight 5:44 AM MDT 8:33 PM MDT
Nautical Twilight 5:10 AM MDT 9:07 PM MDT
Astronomical Twilight 4:33 AM MDT 9:44 PM MDT
Moon 7:01 AM MDT (8/7) 8:16 PM MDT (8/7)
Length of Visible Light 14h 48m
Length of Day
13h 51m
New Moon, 1% of the Moon is Illuminated
Aug 7
New Moon
Aug 14
First Quarter
Aug 20
Full
Aug 28
Last Quarter
Sep 5
New

Hourly Weather History & Observations

Time (MDT) Temp. Dew Point Humidity Pressure Visibility Wind Dir Wind Speed Gust Speed Precip Events Conditions
12:52 AM 55.0 °F 54.0 °F 96% 30.04 in 10.0 mi Calm Calm - N/A   Partly Cloudy
1:52 AM 54.0 °F 53.1 °F 97% 30.03 in 10.0 mi Calm Calm - N/A   Clear
2:52 AM 53.1 °F 53.1 °F 100% 30.00 in 8.0 mi ESE 3.5 mph - N/A   Mostly Cloudy
3:04 AM 51.8 °F 51.8 °F 100% 30.27 in 2.5 mi East 3.5 mph - N/A   Mostly Cloudy
3:07 AM 51.8 °F 51.8 °F 100% 30.27 in 1.2 mi Calm Calm - N/A   Mostly Cloudy
3:16 AM 51.8 °F 51.8 °F 100% 30.26 in 0.8 mi East 3.5 mph - N/A   Mist
3:23 AM 51.8 °F 51.8 °F 100% 30.27 in 1.2 mi SE 3.5 mph - N/A   Scattered Clouds
3:30 AM 50.0 °F 50.0 °F 100% 30.27 in 0.8 mi SSE 3.5 mph - N/A   Mist
3:52 AM 50.0 °F 50.0 °F 100% 30.01 in 0.5 mi South 3.5 mph - N/A Fog Fog
4:24 AM 50.0 °F 50.0 °F 100% 30.27 in 2.0 mi SSW 3.5 mph - N/A   Mostly Cloudy
4:29 AM 50.0 °F 50.0 °F 100% 30.27 in 6.0 mi SSW 3.5 mph - N/A   Scattered Clouds
4:52 AM 48.9 °F 48.9 °F 100% 30.03 in 8.0 mi Calm Calm - N/A   Partly Cloudy
5:52 AM 50.0 °F 50.0 °F 100% 30.05 in 10.0 mi WSW 3.5 mph - N/A   Mostly Cloudy
6:52 AM 51.1 °F 51.1 °F 100% 30.05 in 10.0 mi Calm Calm - N/A   Overcast
7:52 AM 54.0 °F 52.0 °F 93% 30.06 in 10.0 mi Calm Calm - N/A   Overcast
8:52 AM 55.9 °F 53.1 °F 90% 30.07 in 10.0 mi Calm Calm - N/A   Mostly Cloudy
9:52 AM 59.0 °F 53.1 °F 81% 30.06 in 10.0 mi NNW 3.5 mph - N/A   Partly Cloudy
10:52 AM 64.9 °F 51.1 °F 61% 30.04 in 10.0 mi North 6.9 mph - N/A   Partly Cloudy
11:52 AM 69.1 °F 51.1 °F 53% 30.00 in 10.0 mi Variable 3.5 mph - N/A   Partly Cloudy
12:52 PM 68.0 °F 48.9 °F 50% 29.99 in 10.0 mi Calm Calm - N/A   Scattered Clouds
1:52 PM 70.0 °F 48.9 °F 47% 29.97 in 10.0 mi Calm Calm - N/A   Scattered Clouds
2:30 PM 68.0 °F 50.0 °F 52% 30.22 in 10.0 mi NNW 13.8 mph - N/A Thunderstorm Partly Cloudy
2:46 PM 60.8 °F 55.4 °F 82% 30.26 in 2.5 mi WNW 23.0 mph 34.5 mph 0.00 in Rain , Thunderstorm Light Thunderstorms and Rain
2:52 PM 57.9 °F 55.0 °F 90% 30.01 in 1.8 mi NNW 18.4 mph 34.5 mph 0.06 in Rain , Thunderstorm Thunderstorms and Rain
2:56 PM 59.0 °F 55.4 °F 88% 30.23 in 3.0 mi NW 12.7 mph - 0.01 in Rain , Thunderstorm Light Thunderstorms and Rain
3:21 PM 59.0 °F 55.4 °F 88% 30.23 in 10.0 mi NW 12.7 mph - 0.01 in   Mostly Cloudy
3:52 PM 60.1 °F 54.0 °F 80% 30.01 in 10.0 mi NW 12.7 mph - 0.01 in   Partly Cloudy
4:13 PM 60.8 °F 53.6 °F 77% 30.25 in 10.0 mi West 16.1 mph - N/A Thunderstorm Mostly Cloudy
4:24 PM 57.2 °F 53.6 °F 88% 30.26 in 9.0 mi West 10.4 mph 25.3 mph 0.00 in Rain , Thunderstorm Light Rain
4:36 PM 57.2 °F 53.6 °F 88% 30.26 in 10.0 mi WNW 10.4 mph - 0.01 in Rain , Thunderstorm Light Rain
4:52 PM 59.0 °F 55.0 °F 87% 30.07 in 10.0 mi North 13.8 mph 20.7 mph 0.01 in   Scattered Clouds
5:52 PM 59.0 °F 51.1 °F 75% 30.06 in 10.0 mi NNE 11.5 mph - 0.00 in   Mostly Cloudy
6:52 PM 57.0 °F 54.0 °F 89% 30.05 in 10.0 mi NNE 6.9 mph - 0.02 in   Overcast
7:52 PM 57.0 °F 52.0 °F 83% 30.04 in 10.0 mi NNE 3.5 mph - 0.00 in   Overcast
8:52 PM 55.0 °F 52.0 °F 89% 30.04 in 10.0 mi North - - N/A   Mostly Cloudy
9:52 PM 51.1 °F 50.0 °F 96% 30.06 in 10.0 mi SW 3.5 mph - N/A   Clear
10:52 PM 52.0 °F 51.1 °F 97% 30.01 in 10.0 mi WNW 3.5 mph - N/A   Mostly Cloudy
11:52 PM 52.0 °F 51.1 °F 97% 29.99 in 10.0 mi Calm Calm - N/A   Overcast